sat.trackr.live / text

‹ back to catalog

STARLINK-1271

NORAD 45217 · 2020-012AR

PAYLOAD ACTIVE UNKNOWN

§ Identity

Operator
Country
US
Launch date
2020-02-17
Launch site
AFETR
Launch vehicle
Mass (kg)
RCS (m²)

Purposes: comms

External: N2YO · Heavens-Above · Gunter

§ Orbital elements

Epoch: 2026-05-25T01:56:44.320992Z

Period
93.89 min
Inclination
53.1589°
Eccentricity
0.0002166
Mean motion
15.33709102 rev/d
Perigee alt
463.3 km
Apogee alt
466.2 km
Semi-major
6,842.9 km
B*
1.2266e-3
RAAN
28.5569°
Arg perigee
125.3595°
Mean anomaly
234.7610°
Rev number
34,686

§ Raw data

STARLINK-12711 45217U 20012AR  26145.08106853  .00040390  00000+0  12266-2 0  99972 45217  53.1589  28.5569 0002166 125.3595 234.7610 15.33709102346863

JSON: /api/v1/satellites/45217 · /tle

For live sub-satellite position, see the globe view (requires WebGL).

§ Visibility from observer

Set your observer location to see the next 7 days of passes ≥ 10°. The values pass through the URL so the page stays shareable.

No JS? Fill the form by hand. The geolocation button needs JavaScript.